• In Hungary
  • List of Countries
  • For 7 days
  • Water Temperature
  • Satellite Maps
  • Weather Map
  • News
  • Weather Widgets
  • user-avatar
    Login

    Hourly Weather Debina

    Today, 19 September, Wednesday

    Time Temperature Precipitation Wind Pressure Humidity
    00:00 +19°C° 0 mm 3 mps 756 mmHg 70%
    01:00 +18°C° 0 mm 3 mps 756 mmHg 71%
    02:00 +18°C° 0 mm 3 mps 756 mmHg 72%
    03:00 +18°C° 0 mm 3 mps 756 mmHg 72%
    04:00 +17°C° 0 mm 3 mps 756 mmHg 73%
    05:00 +18°C° 0 mm 3 mps 756 mmHg 70%
    06:00 +19°C° 0 mm 3 mps 756 mmHg 67%
    07:00 +19°C° 0 mm 3 mps 756 mmHg 64%
    08:00 +21°C° 0 mm 4 mps 756 mmHg 59%
    09:00 +23°C° 0 mm 4 mps 757 mmHg 53%
    10:00 +26°C° 0 mm 4 mps 757 mmHg 48%
    11:00 +27°C° 0 mm 4 mps 757 mmHg 46%
    12:00 +28°C° 0 mm 4 mps 756 mmHg 44%
    13:00 +29°C° 0 mm 4 mps 756 mmHg 42%
    14:00 +29°C° 0 mm 4 mps 756 mmHg 43%
    15:00 +29°C° 0 mm 3 mps 756 mmHg 45%
    16:00 +29°C° 0 mm 3 mps 756 mmHg 47%
    17:00 +27°C° 0 mm 2 mps 756 mmHg 52%
    18:00 +25°C° 0 mm 2 mps 757 mmHg 58%
    19:00 +23°C° 0 mm 2 mps 757 mmHg 63%
    20:00 +23°C° 0 mm 2 mps 757 mmHg 65%
    21:00 +21°C° 0 mm 2 mps 757 mmHg 68%
    22:00 +20°C° 0 mm 2 mps 757 mmHg 70%
    23:00 +20°C° 0 mm 2 mps 757 mmHg 72%

    Tomorrow, 20 September, Thursday

    Time Temperature Precipitation Wind Pressure Humidity
    00:00 +20°C° 0 mm 2 mps 757 mmHg 74%
    01:00 +19°C° 0 mm 2 mps 757 mmHg 75%
    02:00 +19°C° 0 mm 2 mps 757 mmHg 77%
    03:00 +20°C° 0 mm 1 mps 757 mmHg 79%
    04:00 +19°C° 0 mm 1 mps 757 mmHg 80%
    05:00 +20°C° 0 mm 1 mps 757 mmHg 78%
    06:00 +20°C° 0 mm 2 mps 758 mmHg 76%
    07:00 +20°C° 0 mm 2 mps 758 mmHg 73%
    08:00 +23°C° 0 mm 2 mps 758 mmHg 67%
    09:00 +25°C° 0 mm 2 mps 758 mmHg 60%
    10:00 +27°C° 0 mm 2 mps 758 mmHg 54%
    11:00 +28°C° 0 mm 3 mps 757 mmHg 50%
    12:00 +29°C° 0 mm 3 mps 757 mmHg 47%
    13:00 +30°C° 0 mm 3 mps 757 mmHg 44%
    14:00 +30°C° 0 mm 3 mps 757 mmHg 44%
    15:00 +30°C° 0 mm 2 mps 757 mmHg 45%
    16:00 +29°C° 0 mm 2 mps 756 mmHg 46%
    17:00 +28°C° 0 mm 2 mps 756 mmHg 50%
    18:00 +26°C° 0 mm 2 mps 756 mmHg 55%
    19:00 +24°C° 0 mm 2 mps 757 mmHg 60%
    20:00 +23°C° 0 mm 2 mps 757 mmHg 61%
    21:00 +23°C° 0 mm 2 mps 757 mmHg 63%
    22:00 +21°C° 0 mm 2 mps 757 mmHg 64%
    23:00 +21°C° 0 mm 2 mps 757 mmHg 64%

    Day after tomorrow, 21 September, Friday

    Time Temperature Precipitation Wind Pressure Humidity
    00:00 +20°C° 0 mm 2 mps 757 mmHg 65%
    01:00 +20°C° 0 mm 2 mps 756 mmHg 65%
    02:00 +19°C° 0 mm 2 mps 756 mmHg 65%
    03:00 +19°C° 0 mm 2 mps 756 mmHg 65%
    04:00 +18°C° 0 mm 2 mps 756 mmHg 65%
    05:00 +19°C° 0 mm 3 mps 756 mmHg 63%
    06:00 +19°C° 0 mm 3 mps 756 mmHg 62%
    07:00 +20°C° 0 mm 3 mps 756 mmHg 61%
    08:00 +22°C° 0 mm 4 mps 756 mmHg 56%
    09:00 +25°C° 0 mm 5 mps 755 mmHg 50%
    10:00 +27°C° 0 mm 5 mps 755 mmHg 45%
    11:00 +28°C° 0 mm 5 mps 754 mmHg 42%
    12:00 +29°C° 0 mm 6 mps 754 mmHg 40%
    13:00 +29°C° 0 mm 6 mps 753 mmHg 37%
    14:00 +29°C° 0 mm 6 mps 753 mmHg 39%
    15:00 +29°C° 0 mm 5 mps 752 mmHg 40%
    16:00 +28°C° 0 mm 5 mps 752 mmHg 42%
    17:00 +27°C° 0 mm 5 mps 751 mmHg 45%
    18:00 +25°C° 0 mm 5 mps 751 mmHg 49%
    19:00 +23°C° 0 mm 5 mps 751 mmHg 52%
    20:00 +23°C° 0 mm 5 mps 750 mmHg 52%
    21:00 +23°C° 0 mm 5 mps 750 mmHg 52%
    22:00 +23°C° 0 mm 6 mps 750 mmHg 51%
    23:00 +22°C° 0 mm 6 mps 750 mmHg 51%

    22 September, Saturday

    Time Temperature Precipitation Wind Pressure Humidity
    00:00 +22°C° 0 mm 6 mps 750 mmHg 50%
    01:00 +22°C° 0 mm 6 mps 750 mmHg 49%
    02:00 +22°C° 0 mm 5 mps 750 mmHg 53%
    03:00 +21°C° 0 mm 5 mps 750 mmHg 56%
    04:00 +21°C° 0 mm 5 mps 750 mmHg 59%
    05:00 +19°C° 0.7 mm 5 mps 751 mmHg 67%
    06:00 +16°C° 0.7 mm 6 mps 752 mmHg 74%
    07:00 +15°C° 0.7 mm 6 mps 753 mmHg 82%
    08:00 +14°C° 1.1 mm 6 mps 754 mmHg 79%
    09:00 +14°C° 1.1 mm 5 mps 755 mmHg 77%
    10:00 +14°C° 1.1 mm 5 mps 756 mmHg 74%
    11:00 +14°C° 0 mm 5 mps 756 mmHg 67%
    12:00 +15°C° 0 mm 5 mps 757 mmHg 60%
    13:00 +15°C° 0 mm 5 mps 757 mmHg 54%
    14:00 +15°C° 0 mm 5 mps 757 mmHg 53%
    15:00 +15°C° 0 mm 4 mps 757 mmHg 53%
    16:00 +14°C° 0 mm 4 mps 757 mmHg 53%
    17:00 +14°C° 0 mm 4 mps 758 mmHg 54%
    18:00 +13°C° 0 mm 4 mps 758 mmHg 54%
    19:00 +13°C° 0 mm 4 mps 758 mmHg 55%
    20:00 +12°C° 0 mm 3 mps 758 mmHg 58%
    21:00 +11°C° 0 mm 3 mps 758 mmHg 61%
    22:00 +11°C° 0 mm 3 mps 759 mmHg 64%
    23:00 +10°C° 0 mm 3 mps 759 mmHg 66%

    23 September, Sunday

    Time Temperature Precipitation Wind Pressure Humidity
    00:00 +10°C° 0 mm 3 mps 759 mmHg 69%
    01:00 +10°C° 0 mm 2 mps 758 mmHg 71%
    02:00 +9°C° 0 mm 3 mps 759 mmHg 71%
    03:00 +9°C° 0 mm 3 mps 759 mmHg 71%
    04:00 +9°C° 0 mm 3 mps 759 mmHg 72%
    05:00 +9°C° 0 mm 3 mps 759 mmHg 69%
    06:00 +10°C° 0 mm 3 mps 759 mmHg 67%
    07:00 +10°C° 0 mm 3 mps 759 mmHg 65%
    08:00 +12°C° 0 mm 4 mps 759 mmHg 60%
    09:00 +14°C° 0 mm 4 mps 759 mmHg 54%
    10:00 +15°C° 0 mm 4 mps 759 mmHg 49%
    11:00 +17°C° 0 mm 4 mps 759 mmHg 45%
    12:00 +18°C° 0 mm 4 mps 758 mmHg 42%
    13:00 +18°C° 0 mm 4 mps 758 mmHg 38%
    14:00 +18°C° 0 mm 3 mps 757 mmHg 39%
    15:00 +18°C° 0 mm 3 mps 757 mmHg 40%
    16:00 +18°C° 0 mm 2 mps 756 mmHg 42%
    17:00 +16°C° 0 mm 3 mps 756 mmHg 46%
    18:00 +14°C° 0 mm 3 mps 755 mmHg 50%
    19:00 +13°C° 0 mm 3 mps 755 mmHg 54%
    20:00 +13°C° 0 mm 4 mps 754 mmHg 52%
    21:00 +13°C° 0 mm 5 mps 754 mmHg 50%
    22:00 +14°C° 0 mm 6 mps 753 mmHg 48%
    23:00 +14°C° 0.1 mm 6 mps 752 mmHg 50%

    24 September, Monday

    Time Temperature Precipitation Wind Pressure Humidity
    00:00 +13°C° 0.1 mm 6 mps 751 mmHg 52%
    01:00 +13°C° 0.1 mm 6 mps 750 mmHg 54%
    02:00 +13°C° 0.4 mm 6 mps 750 mmHg 57%
    03:00 +13°C° 0.4 mm 6 mps 750 mmHg 59%
    04:00 +12°C° 0.4 mm 5 mps 749 mmHg 62%
    05:00 +12°C° 0.3 mm 5 mps 749 mmHg 63%
    06:00 +12°C° 0.3 mm 5 mps 748 mmHg 64%
    07:00 +12°C° 0.3 mm 5 mps 747 mmHg 65%
    08:00 +10°C° 0.7 mm 5 mps 747 mmHg 70%
    09:00 +10°C° 0.6 mm 5 mps 747 mmHg 75%
    10:00 +10°C° 0.6 mm 5 mps 746 mmHg 80%
    11:00 +12°C° 0.1 mm 5 mps 746 mmHg 77%
    12:00 +14°C° 0.1 mm 5 mps 746 mmHg 73%
    13:00 +15°C° 0.1 mm 5 mps 746 mmHg 69%
    14:00 +15°C° 0.1 mm 5 mps 746 mmHg 70%
    15:00 +14°C° 0.1 mm 4 mps 746 mmHg 71%
    16:00 +14°C° 0.1 mm 4 mps 746 mmHg 72%
    17:00 +13°C° 0 mm 4 mps 746 mmHg 75%
    18:00 +12°C° 0 mm 4 mps 745 mmHg 77%
    19:00 +12°C° 0 mm 4 mps 745 mmHg 80%
    20:00 +12°C° 0 mm 5 mps 745 mmHg 79%
    21:00 +12°C° 0 mm 5 mps 746 mmHg 79%
    22:00 +12°C° 0 mm 5 mps 746 mmHg 79%
    23:00 +12°C° 0.1 mm 5 mps 746 mmHg 80%
    Show more